Regional Weather Roundup
Issued by NWS

Home | Current Version | Previous Version | Graphics & Text | Print | Product List | Glossary On
Versions: 1 2 3 4 5 6 7 8 9 10 11 12 13 14 15 16 17 18 19 20 21 22 23 24 25 26 27 28 29 30 31 32 33 34 35 36 37 38 39 40 41 42 43 44 45 46 47 48 49 50
000
ASUS45 KBOU 180510
RWRCO

WEATHER ROUNDUP FOR COLORADO
NATIONAL WEATHER SERVICE DENVER/BOULDER CO
1000 PM MST FRI NOV 17 2017

NOTE: "FAIR" INDICATES FEW OR NO CLOUDS BELOW 12000 FEET WITH NO
SIGNIFICANT WEATHER AND/OR OBSTRUCTIONS TO VISIBILITY.

COZ001>005-013-030-031-180600-
...NORTHWEST COLORADO...

CITY           SKY/WX    TMP DP  RH WIND       PRES   REMARKS
CRAIG          FAIR      27  19  72 W15G23    30.10R WCI  15
HAYDEN         CLOUDY    27  21  78 W15       30.09R WCI  15
MEEKER         CLOUDY    29  18  63 MISG      30.12R
RABBIT EARS PA CLOUDY    14  12  92 MISG      29.93R
STEAMBOAT SPGS CLOUDY    26  18  72 W17G25    30.04R WCI  13
WALDEN         CLOUDY    23  18  80 W14G21    29.97R WCI  11
$$

COZ006>008-011-180600-
...WEST CENTRAL VALLEYS...

CITY           SKY/WX    TMP DP  RH WIND       PRES   REMARKS
GRAND JUNCTION FAIR      36  24  62 NW16      30.09R
MONTROSE       CLOUDY    34  30  85 W8        30.12R WCI  27
EAGLE          CLOUDY    29  27  92 E7        30.08R WCI  22
RIFLE          CLOUDY    33  28  81 W8        30.09R WCI  26
DELTA          MOCLDY    38  32  79 SW16      30.07R
NUCLA          CLOUDY    34  32  93 S3        30.11R
$$

COZ017>023-064>068-180600-
...SOUTHWEST COLORADO...

CITY           SKY/WX    TMP DP  RH WIND       PRES   REMARKS
DURANGO        MOCLDY    42  32  67 W21G31    29.92R
CORTEZ         LGT SNOW  33  29  85 N15G26    30.10R FOG     WCI  23
PAGOSA SPRINGS DRIZZLE   41  38  87 SW12G22   29.89S
TELLURIDE      HVY SNOW  24  22  92 NW13G29   30.14R VSB 1/4 WCI  12
WOLF CREEK PAS NOT AVBL
$$

COZ009-010-012-014-032>034-037-058>063-180600-
...CENTRAL COLORADO...

CITY           SKY/WX    TMP DP  RH WIND       PRES   REMARKS
ASPEN          LGT SNOW  27  23  85 N10G20    29.99F FOG     WCI  17
BUENA VISTA    CLOUDY    28  21  75 NW29G40   29.87S WCI  13
COPPER MTN     CLOUDY    14   9  79 MISG      29.93R
BERTHOUD PASS  HVY SNOW   5  -6  61 MISG      29.82F VSB 1/4
COTTONWOOD PAS LGT SNOW  30  28  93 CALM      29.87R
GUNNISON       LGT SNOW  30  26  85 NW13G25   29.98R FOG     WCI  20
KREMMLING      LGT SNOW  32  25  74 NW6G17    30.04R WCI  26
LEADVILLE      LGT SNOW  17  12  80 N23G31    29.93R VSB 3/4 WCI  -1
MONARCH PASS   CLOUDY    19  18  93 MISG      30.01R
SALIDA         CLOUDY    31  28  90 N22G40    29.94R VSB 1   WCI  18
SUNLIGHT       CLOUDY    12  10  92 MISG      30.05R
WILKERSON PASS CLOUDY    18  14  86 N18G35    29.88R WCI   2
$$

COZ069>075-180600-
...SAN LUIS VALLEY/SANGRE DE CRISTO MOUNTAINS...

CITY           SKY/WX    TMP DP  RH WIND       PRES   REMARKS
ALAMOSA        FAIR      41  34  76 NW13      29.81R
DEL NORTE      CLOUDY    41  32  70 NW14G20   29.84R
LA VETA PASS   CLOUDY    34  30  86 S18G37      N/A  WCI  23
SAGUACHE       LGT SNOW  34  30  86 NW31G46   29.86R WCI  20
$$

COZ035-036-038>040-180600-
...NORTHERN COLORADO FRONT RANGE...

CITY           SKY/WX    TMP DP  RH WIND       PRES   REMARKS
DENVER INTL AP LGT RAIN  39  33  79 W10       29.84R
DMNS CITY PARK   N/A     39  31  72 MISG      29.86R
AURORA         LGT RAIN  33  33  99 SW3       29.86R
FRONT RANGE AP CLOUDY    40  35  85 NW5       29.84R
ERIE MUNI ARPT FAIR      40  24  53 NW14G23   29.90R
BOULDER MUN AP FAIR      41  23  48 NW8G18    29.83R
CENTENNIAL     DRIZZLE   34  34 100 CALM      29.86R FOG
BROOMFIELD     FAIR      37  27  65 W21G33    29.85R
FORT COLLINS   FAIR      40  18  41 NW18G24   29.86R
LONGMONT       FAIR      42  26  52 W3        29.87R
$$

COZ041-046-047-076>085-087-088-180600-
...PIKES PEAK/PALMER DIVIDE AND SOUTHERN FOOTHILLS...

CITY           SKY/WX    TMP DP  RH WIND       PRES   REMARKS
COLO. SPRINGS  LGT SNOW  36  33  89 NW20G28   29.81R FOG
A. F. ACADEMY  LGT SNOW  33  33  98 NW10      29.82R FOG     WCI  25
SCHRIEVER AFB  FLURRIES  34  32  92 NE22G35   29.77R WCI  23
CHEYENNE MTN   SNOWSHWR  33  31  94 NW20G30   29.74R VSB 3/8 WCI  21
ELLICOTT       NOT AVBL
FALCON         LGT SNOW  33  32  98 N23G29    29.80R WCI  20
FORT CARSON    MIX PCPN  36  34  91 N29G40    29.77R
LIMON          FLURRIES  34  33  96 N25G35    29.82R WCI  21
MONUMENT HILL  LGT SNOW  30  30 100 N6        29.86R VSB 3/4 WCI  24
CANON CITY     RAIN      43  36  75 W20G29    29.77R
WALSENBURG     CLOUDY    54  36  50 W18G26    29.74R
TRINIDAD       FAIR      55  27  34 W16       29.71R
$$

COZ042>045-048>051-090-091-180600-
...NORTHEAST COLORADO...

CITY           SKY/WX    TMP DP  RH WIND       PRES   REMARKS
GREELEY ARPT   MOCLDY    39  27  62 NW14      29.84R
AKRON          CLOUDY    40  34  79 W10       29.80R
BURLINGTON     CLOUDY    42  30  62 N18G30    29.76R
WRAY           NOT AVBL
YUMA           LGT RAIN  41  36  81 W13       29.78R
STERLING       MOCLDY    41  36  81 N24G30    29.79R
HOLYOKE        FAIR      43  39  87 W8        29.75R
FORT MORGAN    CLOUDY    41  28  59 NW20G25   29.84R
$$

COZ086-089-092>099-180600-
...SOUTHEAST COLORADO...

CITY           SKY/WX    TMP DP  RH WIND       PRES   REMARKS
PUEBLO         MOCLDY    46  34  62 N28G33    29.75R
LA JUNTA       FAIR      47  37  68 N21G29    29.75R
LAMAR          FAIR      47  30  51 N17G24    29.69R
SPRINGFIELD      N/A     45  34  65 SW12      29.63R
$$



USA.gov is the U.S. government's official web portal to all federal, state and local government web resources and services.